Regional Weather Roundup
Issued by NWS

Home | Current Version | Previous Version | Graphics & Text | Print | Product List | Glossary On
Versions: 1 2 3 4 5 6 7 8 9 10 11 12 13 14 15 16 17 18 19 20 21 22 23 24 25 26 27 28 29 30 31 32 33 34 35 36 37 38 39 40 41 42 43 44 45 46 47 48 49 50
000
ASUS43 KLOT 271623
RWRIL

ILLINOIS REGIONAL WEATHER ROUNDUP
NATIONAL WEATHER SERVICE CHICAGO/ROMEOVILLE IL
1100 AM CDT SUN MAY 27 2018

NOTE: "FAIR" INDICATES FEW OR NO CLOUDS BELOW 12,000 FEET WITH NO
SIGNIFICANT WEATHER AND/OR OBSTRUCTIONS TO VISIBILITY.

* THESE STATIONS ARE NOT UNDER NWS QUALITY CONTROL. THEY ALSO MAY NOT
  REPORT WEATHER SUCH AS PRECIPITATION OR FOG.

ILZ001-002-007-009-015-016-024-271700-
NORTHWEST ILLINOIS

CITY           SKY/WX    TMP DP  RH WIND       PRES   REMARKS
MOLINE         FAIR      89  72  56 SW7       29.85S HX  96
STERLING*        N/A    N/A N/A N/A MISG        N/A
SAVANNA*       CLOUDY    85  70  59 S7        29.87S HX  89
$$

ILZ003-004-008-010-011-017-018-271700-
NORTH CENTRAL ILLINOIS

CITY           SKY/WX    TMP DP  RH WIND       PRES   REMARKS
ROCKFORD       FAIR      87  67  51 S7        29.89S HX  90
FREEPORT*      FAIR      89  64  43 SW7       29.90R HX  90
ROCHELLE*      FAIR      89  65  45 W6        29.89S HX  91
DE KALB*       FAIR      88  67  50 CALM      29.89F HX  91
PERU*          FAIR      92  68  44 W3        29.88S HX  97
$$

ILZ005-006-012>014-019>023-271700-
NORTHEAST ILLINOIS

CITY           SKY/WX    TMP DP  RH WIND       PRES   REMARKS
CHICAGO-OHARE  FAIR      89  64  43 W7        29.86S HX  90
CHICAGO-MIDWAY FAIR      90  68  48 S7        29.86F HX  94
AURORA         FAIR      88  68  51 S5        29.88S HX  91
LANSING*       FAIR      90  69  50 CALM      29.88S HX  94
JOLIET*        FAIR      90  72  55 SW5       29.88S HX  97
WAUKEGAN       FAIR      88  67  49 VRB5      29.86S HX  91
DUPAGE AIRPORT FAIR      88  70  55 SW7       29.87S HX  93
KANKAKEE*      FAIR      90  66  45 SW3       29.89S HX  93
WHEELING       FAIR      91  66  43 CALM      29.88S HX  93
MORRIS*        FAIR      90  65  43 SW5       29.86F HX  92
ROMEOVILLE*    FAIR      88  67  50 S3        29.88S HX  91
$$

LMZ740>746-271700-
SOUTHERN LAKE MICHIGAN

STATION/POSITION SKY/WX   TEMP    WIND        PRES    VSBY  WAVE
                          AIR SEA DIR/SP/G                  HT/PER
                          (F)     (DEG/KT/KT) (MB)    (MI)  (FT/S)
SOUTHERN BUOY              52 41  180/  8/  8 1011.8F         0
WILMETTE HARBOR            65 59  120/  6/  6   N/A           0
HARRISON CRIB              79     120/ 11/ 11   N/A
BURNHAM HARBOR                    120/  2/  6   N/A
CALUMET HARBOR             86     130/  5/  9 1011.2
BURNS HARBOR               78        CALM     1012.2
MICHIGAN CITY              83     330/  2/  3   N/A
MICHIGAN CITY 6N           78 65   60/  2/  2   N/A           0
ST. JOSEPH                 73 68  170/  4/  4 1012.0          0
$$

ILZ025>027-034>036-040-047-049-050-058-095>099-271700-
WEST-CENTRAL ILLINOIS

CITY           SKY/WX    TMP DP  RH WIND       PRES   REMARKS
QUINCY         SUNNY     88  70  55 CALM      29.89R HX  93
GALESBURG*     FAIR      89  71  55 SW5       29.89S HX  95
MACOMB*        SUNNY     87  72  61 CALM      29.90S HX  93
JACKSONVILLE*  SUNNY     86  74  66 SW6       29.89R HX  94
PITTSFIELD*    SUNNY     87  76  69 SW3       29.91S HX  97
$$

ILZ028>032-037-038-041>044-048-051>054-059>061-271700-
CENTRAL ILLINOIS

CITY           SKY/WX    TMP DP  RH WIND       PRES   REMARKS
PONTIAC        FAIR      91  66  43 S5        29.89S HX  93
BLOOMINGTON    FAIR      88  73  61 SE7       29.91R HX  95
DECATUR        FAIR      87  71  58 VRB3      29.90S HX  93
PEORIA         FAIR      87  73  62 SW6       29.88S HX  94
LACON*         FAIR      89  72  56 SW6       29.87S HX  95
LINCOLN*       FAIR      89  75  62 S3        29.89R HX  99
SPRINGFIELD    FAIR      89  75  63 CALM      29.88F HX  99
TAYLORVILLE    FAIR      87  73  63 S5        29.90S HX  94
$$

ILZ033-039-045-046-055>057-062-063-271700-
EAST-CENTRAL ILLINOIS

CITY           SKY/WX    TMP DP  RH WIND       PRES   REMARKS
CHAMPAIGN      FAIR      87  72  60 SW6       29.90F HX  93
DANVILLE*      FAIR      88  71  57 SW7       29.88F HX  94
RANTOUL*       FAIR      89  73  59 S3        29.90S HX  97
MATTOON        FAIR      86  72  62 S5        29.90S HX  92
PARIS*         PTSUNNY   86  70  57 CALM      29.91S HX  91
$$

ILZ079-100>102-271700-
SOUTHWEST ILLINOIS

CITY           SKY/WX    TMP DP  RH WIND       PRES   REMARKS
ALTON          SUNNY     86  75  70 SW5       29.91S HX  95
BELLEVILLE     SUNNY     87  73  61 NW5       29.92  HX  94
CAHOKIA*       SUNNY     87  72  60 W5        29.90S HX  93
SPARTA*        SUNNY     86  76  73 W5        29.93S HX  95
$$

ILZ064>066-069>071-074>076-080>082-084>086-088>090-092>094-271700-
SOUTH-CENTRAL ILLINOIS

CITY           SKY/WX    TMP DP  RH WIND       PRES   REMARKS
CARBONDALE     FAIR      86  71  60 VRB3      29.92R HX  91
CAIRO*         FAIR      84  74  70 SW3       29.92R HX  91
EFFINGHAM*     FAIR      89  67  47 SE5       29.93S HX  92
MARION         MOSUNNY   84  72  65 W7        29.93R HX  89
MT. VERNON     FAIR      88  73  61 SW5       29.92R HX  95
CENTRALIA*     MOSUNNY   89  74  61 SW6       29.91S HX  98
SALEM*         FAIR      88  70  54 S5        29.91S HX  93
METROPOLIS*    FAIR      87  70  56 CALM      29.93S HAZE    HX  92
$$

ILZ067-068-072-073-078-083-087-091-271700-
SOUTHEAST ILLINOIS

CITY           SKY/WX    TMP DP  RH WIND       PRES   REMARKS
LAWRENCEVILLE  FAIR      89  67  47 CALM      29.91S HX  92
FLORA*         FAIR      88  71  56 CALM      29.91S HX  94
FAIRFIELD*     CLOUDY    87  70  56 W5        29.89F HX  91
HARRISBURG*    FAIR      86  73  66 SW5       29.92S HX  93
ROBINSON*      FAIR      88  70  55 NW5       29.91S HX  92
CARMI*         FAIR      90  67  47 SE5       29.91S HX  92
$$

ABBREVIATIONS USED IN REMARKS
   TC - TEMPERATURE IN CELSIUS
  WCI - WIND CHILL INDEX
   HX - HEAT INDEX
  VSB - VISIBILITY
$$





USA.gov is the U.S. government's official web portal to all federal, state and local government web resources and services.